HJ3GNC-10 Weather Reports


time (UTC)temp
F
wind
direction
speed
knots
gust
knots
rain 1hr
in
rain 24hr
in
rain mn
in
humidity
%
barometer
mb
20260507101558 50 80 0.0 0.0 0.00 0.00 0.00 92 1020.0
20260507100018 50 97 0.0 0.0 0.00 0.00 0.00 90 1020.0
20260507094434 50 97 0.0 0.0 0.00 0.00 0.00 90 1020.0
20260507092852 50 96 0.0 0.0 0.00 0.00 0.00 90 1020.0
20260507091306 50 0 0.0 0.0 0.00 0.00 0.00 90 1020.0
20260507085721 52 350 0.0 0.0 0.00 0.00 0.00 90 1020.0
20260507082554 52 350 0.0 0.0 0.00 0.00 0.00 90 1020.0
20260507081008 52 350 0.0 0.0 0.00 0.00 0.00 90 1020.0
20260507075427 52 0 0.0 0.0 0.00 0.00 0.00 90 1020.0
20260507073840 52 0 0.0 0.0 0.00 0.00 0.00 90 1020.0
20260507072258 52 0 0.0 0.0 0.00 0.00 0.00 90 1020.0
20260507070708 52 0 0.0 0.0 0.00 0.00 0.00 90 1020.0
20260507065123 52 60 0.0 0.0 0.00 0.00 0.00 90 1020.0
20260507063539 52 60 0.0 0.0 0.00 0.00 0.00 90 1020.0
20260507061956 52 60 0.0 0.0 0.00 0.00 0.00 89 1021.0
20260507060413 52 40 0.0 0.0 0.00 0.00 0.00 88 1020.0
20260507054833 52 40 0.0 0.0 0.00 0.00 0.00 87 1020.0
20260507053251 52 40 0.0 0.0 0.00 0.00 0.00 86 1021.0
20260507051707 52 40 0.0 0.0 0.00 0.00 0.00 85 1021.0
20260507050114 52 20 0.0 0.0 0.00 0.00 0.00 83 1021.0
20260507044527 52 20 0.0 0.0 0.00 0.00 0.00 81 1021.0
20260507042940 52 20 0.0 0.0 0.00 0.00 0.00 79 1022.0
20260507041357 53 20 0.0 0.0 0.00 0.00 0.00 75 1022.0
20260507035811 54 70 0.0 0.0 0.00 0.00 0.00 71 1022.0
20260507034224 54 70 0.0 0.0 0.00 0.00 0.00 71 1022.0
20260507032638 54 70 0.0 0.0 0.00 0.00 0.00 71 1022.0
20260507031048 55 70 0.0 0.0 0.00 0.00 0.00 71 1021.0
20260507025452 59 110 0.0 0.0 0.00 0.00 0.00 58 1021.0
20260507023906 59 110 0.0 0.0 0.00 0.00 0.00 58 1021.0
20260507022323 59 110 0.0 0.0 0.00 0.00 0.00 58 1021.0
20260507015149 59 130 0.0 0.0 0.00 0.00 0.00 63 1021.0
20260507013605 59 130 0.0 0.0 0.00 0.00 0.00 63 1021.0
20260507012022 59 130 0.0 0.0 0.00 0.00 0.00 63 1020.0
20260507010432 63 120 0.0 0.0 0.00 0.00 0.00 51 1020.0
20260507004846 63 120 0.0 0.0 0.00 0.00 0.00 51 1020.0
20260507003302 63 120 0.0 0.0 0.00 0.00 0.00 51 1019.0
20260507001719 63 120 0.0 0.0 0.00 0.00 0.00 51 1018.0
20260507000131 64 130 0.0 0.0 0.00 0.00 0.00 48 1018.0
20260506234542 60 130 0.0 0.0 0.00 0.00 0.00 85 1017.0
20260506232957 60 141 0.0 0.0 0.00 0.00 0.00 85 1016.0
20260506231358 60 141 0.0 0.0 0.00 0.00 0.00 85 1016.0
20260506225806 60 141 0.0 0.0 0.00 0.00 0.00 85 1016.0
20260506224216 60 141 0.0 0.0 0.00 0.00 0.00 85 1015.0
20260506222622 60 159 0.0 0.0 0.00 0.00 0.00 85 1014.0
20260506221038 60 159 0.0 0.0 0.00 0.00 0.00 85 1014.0
20260506215432 60 159 0.0 0.0 0.00 0.00 0.00 85 1014.0
20260506212139 60 166 0.0 0.0 0.00 0.00 0.00 85 1014.0
20260506210544 60 166 0.0 0.0 0.00 0.00 0.00 85 1014.0
20260506204955 60 166 0.0 0.0 0.00 0.00 0.00 85 1014.0
20260506203410 60 166 0.0 0.0 0.00 0.00 0.00 85 1014.0
20260506201815 60 165 0.0 0.0 0.00 0.00 0.00 85 1014.0
20260506200224 60 165 0.0 0.0 0.00 0.00 0.00 85 1014.0
20260506194641 60 165 0.0 0.0 0.00 0.00 0.00 85 1014.0
20260506193055 60 165 0.0 0.0 0.00 0.00 0.00 85 1014.0
20260506191448 60 155 0.0 0.0 0.00 0.00 0.00 84 1015.0
20260506185901 60 155 0.0 0.0 0.00 0.00 0.00 83 1015.0
20260506184313 57 155 0.0 0.0 0.00 0.00 0.00 92 1016.0
20260506181120 57 132 0.0 0.0 0.00 0.00 0.00 92 1017.0
20260506175529 57 132 0.0 0.0 0.00 0.00 0.00 92 1017.0
20260506173941 57 130 0.0 0.0 0.00 0.00 0.00 92 1017.0
20260506172357 57 93 0.0 0.0 0.00 0.00 0.00 92 1018.0
20260506170812 57 93 3.5 3.5 0.00 0.00 0.00 92 1018.0
20260506165229 57 93 0.0 0.0 0.00 0.00 0.00 92 1018.0
20260506163617 57 93 3.5 3.5 0.00 0.00 0.00 92 1018.0
20260506162027 57 91 0.0 0.0 0.00 0.00 0.00 92 1019.0
20260506160438 57 91 0.0 0.0 0.00 0.00 0.00 92 1019.0
20260506154844 57 91 0.0 0.0 0.00 0.00 0.00 92 1019.0
20260506153251 57 91 0.0 0.0 0.00 0.00 0.00 92 1019.0
20260506151613 57 83 0.0 0.0 0.00 0.00 0.00 92 1019.0
20260506150012 57 90 0.0 0.0 0.00 0.00 0.00 93 1019.0
20260506144428 57 90 0.0 0.0 0.00 0.00 0.00 94 1019.0
20260506142839 57 90 0.0 0.0 0.00 0.00 0.00 95 1019.0
20260506141249 57 90 0.0 0.0 0.00 0.00 0.00 97 1019.0
20260506135657 57 70 0.0 0.0 0.00 0.00 0.00 99 1019.0
20260506134113 54 70 0.0 0.0 0.00 0.00 0.00 98 1019.0
20260506132526 54 70 0.0 0.0 0.00 0.00 0.00 98 1019.0
20260506130941 54 0 0.0 0.0 0.00 0.00 0.00 98 1019.0
20260506125354 54 0 0.0 0.0 0.00 0.00 0.00 98 1019.0
20260506122215 54 40 0.0 0.0 0.00 0.00 0.00 98 1020.0
20260506120626 54 60 0.0 0.0 0.00 0.00 0.00 98 1020.0
20260506115039 54 0 0.0 0.0 0.00 0.00 0.00 98 1020.0
20260506113454 54 0 0.0 0.0 0.00 0.00 0.00 98 1020.0
20260506111913 54 0 0.0 0.0 0.00 0.00 0.00 98 1020.0
20260506110331 54 0 0.0 0.0 0.00 0.00 0.00 98 1020.0
20260506104745 54 0 0.0 0.0 0.00 0.00 0.00 98 1020.0
20260506103159 54 0 0.0 0.0 0.00 0.00 0.00 98 1020.0